Year,Month,Day,Hour,Minute,Value (Times are PST for temperature in C)
2010,08,05,00,00,19.60
2010,08,05,00,01,19.60
2010,08,05,00,02,19.50
2010,08,05,00,03,19.50
2010,08,05,00,04,19.50
2010,08,05,00,05,19.40
2010,08,05,00,06,19.40
2010,08,05,00,07,19.40
2010,08,05,00,08,19.40
2010,08,05,00,09,19.40
2010,08,05,00,10,19.30
2010,08,05,00,11,19.30
2010,08,05,00,12,19.30
2010,08,05,00,13,19.30
2010,08,05,00,14,19.30
2010,08,05,00,15,19.30
2010,08,05,00,16,19.30
2010,08,05,00,17,19.30
2010,08,05,00,18,19.30
2010,08,05,00,19,19.30
2010,08,05,00,20,19.30
2010,08,05,00,21,19.30
2010,08,05,00,22,19.30
2010,08,05,00,23,19.30
2010,08,05,00,24,19.30
2010,08,05,00,25,19.20
2010,08,05,00,26,19.20
2010,08,05,00,27,19.20
2010,08,05,00,28,19.20
2010,08,05,00,29,19.10
2010,08,05,00,30,19.10
2010,08,05,00,31,19.10
2010,08,05,00,32,19.10
2010,08,05,00,33,19.10
2010,08,05,00,34,19.10
2010,08,05,00,35,19.10
2010,08,05,00,36,19.10
2010,08,05,00,37,19.00
2010,08,05,00,38,19.00
2010,08,05,00,39,19.00
2010,08,05,00,40,19.00
2010,08,05,00,41,19.00
2010,08,05,00,42,19.00
2010,08,05,00,43,19.00
2010,08,05,00,44,19.00
2010,08,05,00,45,19.00
2010,08,05,00,46,19.00
2010,08,05,00,47,19.00
2010,08,05,00,48,18.90
2010,08,05,00,49,18.90
2010,08,05,00,50,18.90
2010,08,05,00,51,18.90
2010,08,05,00,52,18.80
2010,08,05,00,53,18.80
2010,08,05,00,54,18.80
2010,08,05,00,55,18.70
2010,08,05,00,56,18.70
2010,08,05,00,57,18.70
2010,08,05,00,58,18.70
2010,08,05,00,59,18.70
2010,08,05,01,00,18.60
2010,08,05,01,01,18.60
2010,08,05,01,02,18.60
2010,08,05,01,03,18.60
2010,08,05,01,04,18.60
2010,08,05,01,05,18.60
2010,08,05,01,06,18.60
2010,08,05,01,07,18.60
2010,08,05,01,08,18.60
2010,08,05,01,09,18.60
2010,08,05,01,10,18.60
2010,08,05,01,11,18.60
2010,08,05,01,12,18.60
2010,08,05,01,13,18.60
2010,08,05,01,14,18.60
2010,08,05,01,15,18.60
2010,08,05,01,16,18.60
2010,08,05,01,17,18.60
2010,08,05,01,18,18.50
2010,08,05,01,19,18.50
2010,08,05,01,20,18.50
2010,08,05,01,21,18.40
2010,08,05,01,22,18.40
2010,08,05,01,23,18.40
2010,08,05,01,24,18.40
2010,08,05,01,25,18.40
2010,08,05,01,26,18.40
2010,08,05,01,27,18.40
2010,08,05,01,28,18.40
2010,08,05,01,29,18.30
2010,08,05,01,30,18.30
2010,08,05,01,31,18.30
2010,08,05,01,32,18.30
2010,08,05,01,33,18.30
2010,08,05,01,34,18.30
2010,08,05,01,35,18.30
2010,08,05,01,36,18.30
2010,08,05,01,37,18.30
2010,08,05,01,38,18.30
2010,08,05,01,39,18.30
2010,08,05,01,40,18.30
2010,08,05,01,41,18.30
2010,08,05,01,42,18.30
2010,08,05,01,43,18.30
2010,08,05,01,44,18.30
2010,08,05,01,45,18.30
2010,08,05,01,46,18.30
2010,08,05,01,47,18.20
2010,08,05,01,48,18.20
2010,08,05,01,49,18.20
2010,08,05,01,50,18.20
2010,08,05,01,51,18.20
2010,08,05,01,52,18.20
2010,08,05,01,53,18.20
2010,08,05,01,54,18.20
2010,08,05,01,55,18.20
2010,08,05,01,56,18.20
2010,08,05,01,57,18.20
2010,08,05,01,58,18.20
2010,08,05,01,59,18.10
2010,08,05,02,00,18.10
2010,08,05,02,01,18.10
2010,08,05,02,02,18.10
2010,08,05,02,03,18.10
2010,08,05,02,04,18.10
2010,08,05,02,05,18.00
2010,08,05,02,06,18.00
2010,08,05,02,07,18.00
2010,08,05,02,08,18.00
2010,08,05,02,09,18.00
2010,08,05,02,10,18.00
2010,08,05,02,11,17.90
2010,08,05,02,12,17.90
2010,08,05,02,13,17.90
2010,08,05,02,14,17.90
2010,08,05,02,15,17.90
2010,08,05,02,16,17.90
2010,08,05,02,17,17.90
2010,08,05,02,18,17.90
2010,08,05,02,19,17.90
2010,08,05,02,20,17.90
2010,08,05,02,21,17.80
2010,08,05,02,22,17.90
2010,08,05,02,23,17.80
2010,08,05,02,24,17.80
2010,08,05,02,25,17.80
2010,08,05,02,26,17.80
2010,08,05,02,27,17.80
2010,08,05,02,28,17.80
2010,08,05,02,29,17.80
2010,08,05,02,30,17.80
2010,08,05,02,31,17.80
2010,08,05,02,32,17.80
2010,08,05,02,33,17.80
2010,08,05,02,34,17.80
2010,08,05,02,35,17.80
2010,08,05,02,36,17.90
2010,08,05,02,37,17.90
2010,08,05,02,38,17.90
2010,08,05,02,39,17.90
2010,08,05,02,40,17.90
2010,08,05,02,41,17.90
2010,08,05,02,42,17.90
2010,08,05,02,43,17.90
2010,08,05,02,44,17.90
2010,08,05,02,45,17.90
2010,08,05,02,46,17.90
2010,08,05,02,47,17.90
2010,08,05,02,48,17.90
2010,08,05,02,49,17.90
2010,08,05,02,50,17.90
2010,08,05,02,51,17.90
2010,08,05,02,52,17.90
2010,08,05,02,53,17.90
2010,08,05,02,54,17.90
2010,08,05,02,55,17.90
2010,08,05,02,56,17.90
2010,08,05,02,57,17.90
2010,08,05,02,58,17.90
2010,08,05,02,59,17.90
2010,08,05,03,00,17.90
2010,08,05,03,01,17.90
2010,08,05,03,02,17.90
2010,08,05,03,03,17.90
2010,08,05,03,04,17.90
2010,08,05,03,05,17.90
2010,08,05,03,06,17.90
2010,08,05,03,07,17.90
2010,08,05,03,08,17.90
2010,08,05,03,09,17.90
2010,08,05,03,10,17.90
2010,08,05,03,11,17.90
2010,08,05,03,12,17.90
2010,08,05,03,13,17.90
2010,08,05,03,14,17.90
2010,08,05,03,15,17.90
2010,08,05,03,16,17.90
2010,08,05,03,17,17.90
2010,08,05,03,18,17.90
2010,08,05,03,19,17.90
2010,08,05,03,20,17.90
2010,08,05,03,21,17.90
2010,08,05,03,22,17.80
2010,08,05,03,23,17.80
2010,08,05,03,24,17.80
2010,08,05,03,25,17.80
2010,08,05,03,26,17.80
2010,08,05,03,27,17.80
2010,08,05,03,28,17.80
2010,08,05,03,29,17.80
2010,08,05,03,30,17.80
2010,08,05,03,31,17.80
2010,08,05,03,32,17.80
2010,08,05,03,33,17.80
2010,08,05,03,34,17.80
2010,08,05,03,35,17.80
2010,08,05,03,36,17.80
2010,08,05,03,37,17.80
2010,08,05,03,38,17.80
2010,08,05,03,39,17.70
2010,08,05,03,40,17.70
2010,08,05,03,41,17.70
2010,08,05,03,42,17.70
2010,08,05,03,43,17.70
2010,08,05,03,44,17.70
2010,08,05,03,45,17.70
2010,08,05,03,46,17.70
2010,08,05,03,47,17.70
2010,08,05,03,48,17.70
2010,08,05,03,49,17.70
2010,08,05,03,50,17.70
2010,08,05,03,51,17.70
2010,08,05,03,52,17.70
2010,08,05,03,53,17.70
2010,08,05,03,54,17.70
2010,08,05,03,55,17.70
2010,08,05,03,56,17.70
2010,08,05,03,57,17.70
2010,08,05,03,58,17.70
2010,08,05,03,59,17.70
2010,08,05,04,00,17.70
2010,08,05,04,01,17.70
2010,08,05,04,02,17.70
2010,08,05,04,03,17.70
2010,08,05,04,04,17.70
2010,08,05,04,05,17.70
2010,08,05,04,06,17.70
2010,08,05,04,07,17.70
2010,08,05,04,08,17.70
2010,08,05,04,09,17.70
2010,08,05,04,10,17.70
2010,08,05,04,11,17.70
2010,08,05,04,12,17.60
2010,08,05,04,13,17.60
2010,08,05,04,14,17.60
2010,08,05,04,15,17.60
2010,08,05,04,16,17.60
2010,08,05,04,17,17.60
2010,08,05,04,18,17.60
2010,08,05,04,19,17.60
2010,08,05,04,20,17.60
2010,08,05,04,21,17.60
2010,08,05,04,22,17.60
2010,08,05,04,23,17.60
2010,08,05,04,24,17.60
2010,08,05,04,25,17.60
2010,08,05,04,26,17.70
2010,08,05,04,27,17.70
2010,08,05,04,28,17.60
2010,08,05,04,29,17.70
2010,08,05,04,30,17.60
2010,08,05,04,31,17.60
2010,08,05,04,32,17.60
2010,08,05,04,33,17.60
2010,08,05,04,34,17.60
2010,08,05,04,35,17.60
2010,08,05,04,36,17.60
2010,08,05,04,37,17.60
2010,08,05,04,38,17.60
2010,08,05,04,39,17.60
2010,08,05,04,40,17.60
2010,08,05,04,41,17.50
2010,08,05,04,42,17.50
2010,08,05,04,43,17.50
2010,08,05,04,44,17.50
2010,08,05,04,45,17.50
2010,08,05,04,46,17.50
2010,08,05,04,47,17.40
2010,08,05,04,48,17.40
2010,08,05,04,49,17.40
2010,08,05,04,50,17.40
2010,08,05,04,51,17.40
2010,08,05,04,52,17.40
2010,08,05,04,53,17.40
2010,08,05,04,54,17.40
2010,08,05,04,55,17.40
2010,08,05,04,56,17.30
2010,08,05,04,57,17.30
2010,08,05,04,58,17.30
2010,08,05,04,59,17.30
2010,08,05,05,00,17.30
2010,08,05,05,01,17.30
2010,08,05,05,02,17.30
2010,08,05,05,03,17.30
2010,08,05,05,04,17.20
2010,08,05,05,05,17.20
2010,08,05,05,06,17.20
2010,08,05,05,07,17.20
2010,08,05,05,08,17.20
2010,08,05,05,09,17.20
2010,08,05,05,10,17.20
2010,08,05,05,11,17.20
2010,08,05,05,12,17.20
2010,08,05,05,13,17.20
2010,08,05,05,14,17.20
2010,08,05,05,15,17.20
2010,08,05,05,16,17.20
2010,08,05,05,17,17.20
2010,08,05,05,18,17.20
2010,08,05,05,19,17.20
2010,08,05,05,20,17.20
2010,08,05,05,21,17.20
2010,08,05,05,22,17.20
2010,08,05,05,23,17.20
2010,08,05,05,24,17.20
2010,08,05,05,25,17.10
2010,08,05,05,26,17.10
2010,08,05,05,27,17.10
2010,08,05,05,28,17.10
2010,08,05,05,29,17.10
2010,08,05,05,30,17.10
2010,08,05,05,31,17.10
2010,08,05,05,32,17.10
2010,08,05,05,33,17.10
2010,08,05,05,34,17.10
2010,08,05,05,35,17.10
2010,08,05,05,36,17.10
2010,08,05,05,37,17.10
2010,08,05,05,38,17.10
2010,08,05,05,39,17.10
2010,08,05,05,40,17.10
2010,08,05,05,41,17.10
2010,08,05,05,42,17.10
2010,08,05,05,43,17.10
2010,08,05,05,44,17.10
2010,08,05,05,45,17.00
2010,08,05,05,46,17.00
2010,08,05,05,47,17.00
2010,08,05,05,48,17.00
2010,08,05,05,49,17.00
2010,08,05,05,50,16.90
2010,08,05,05,51,16.90
2010,08,05,05,52,16.90
2010,08,05,05,53,16.90
2010,08,05,05,54,16.90
2010,08,05,05,55,16.90
2010,08,05,05,56,16.90
2010,08,05,05,57,16.90
2010,08,05,05,58,16.90
2010,08,05,05,59,16.90
2010,08,05,06,00,16.90
2010,08,05,06,01,16.90
2010,08,05,06,02,16.90
2010,08,05,06,03,16.90
2010,08,05,06,04,16.80
2010,08,05,06,05,16.80
2010,08,05,06,06,16.80
2010,08,05,06,07,16.80
2010,08,05,06,08,16.80
2010,08,05,06,09,16.80
2010,08,05,06,10,16.80
2010,08,05,06,11,16.80
2010,08,05,06,12,16.80
2010,08,05,06,13,16.80
2010,08,05,06,14,16.80
2010,08,05,06,15,16.80
2010,08,05,06,16,16.80
2010,08,05,06,17,16.80
2010,08,05,06,18,16.80
2010,08,05,06,19,16.80
2010,08,05,06,20,16.80
2010,08,05,06,21,16.80
2010,08,05,06,22,16.80
2010,08,05,06,23,16.80
2010,08,05,06,24,16.80
2010,08,05,06,25,16.80
2010,08,05,06,26,16.80
2010,08,05,06,27,16.80
2010,08,05,06,28,16.80
2010,08,05,06,29,16.80
2010,08,05,06,30,16.80
2010,08,05,06,31,16.80
2010,08,05,06,32,16.80
2010,08,05,06,33,16.80
2010,08,05,06,34,16.80
2010,08,05,06,35,16.80
2010,08,05,06,36,16.80
2010,08,05,06,37,16.80
2010,08,05,06,38,16.80
2010,08,05,06,39,16.80
2010,08,05,06,40,16.90
2010,08,05,06,41,16.90
2010,08,05,06,42,16.90
2010,08,05,06,43,16.90
2010,08,05,06,44,16.90
2010,08,05,06,45,17.00
2010,08,05,06,46,17.00
2010,08,05,06,47,17.00
2010,08,05,06,48,17.10
2010,08,05,06,49,17.10
2010,08,05,06,50,17.10
2010,08,05,06,51,17.10
2010,08,05,06,52,17.10
2010,08,05,06,53,17.20
2010,08,05,06,54,17.20
2010,08,05,06,55,17.20
2010,08,05,06,56,17.20
2010,08,05,06,57,17.20
2010,08,05,06,58,17.20
2010,08,05,06,59,17.30
2010,08,05,07,00,17.30
2010,08,05,07,01,17.30
2010,08,05,07,02,17.30
2010,08,05,07,03,17.30
2010,08,05,07,04,17.40
2010,08,05,07,05,17.40
2010,08,05,07,06,17.40
2010,08,05,07,07,17.50
2010,08,05,07,08,17.60
2010,08,05,07,09,17.60
2010,08,05,07,10,17.60
2010,08,05,07,11,17.60
2010,08,05,07,12,17.70
2010,08,05,07,13,17.70
2010,08,05,07,14,17.70
2010,08,05,07,15,17.70
2010,08,05,07,16,17.70
2010,08,05,07,17,17.80
2010,08,05,07,18,17.80
2010,08,05,07,19,17.80
2010,08,05,07,20,17.80
2010,08,05,07,21,17.80
2010,08,05,07,22,17.90
2010,08,05,07,23,17.90
2010,08,05,07,24,17.90
2010,08,05,07,25,18.00
2010,08,05,07,26,18.10
2010,08,05,07,27,18.10
2010,08,05,07,28,18.20
2010,08,05,07,29,18.30
2010,08,05,07,30,18.40
2010,08,05,07,31,18.40
2010,08,05,07,32,18.50
2010,08,05,07,33,18.50
2010,08,05,07,34,18.60
2010,08,05,07,35,18.60
2010,08,05,07,36,18.60
2010,08,05,07,37,18.60
2010,08,05,07,38,18.70
2010,08,05,07,39,18.60
2010,08,05,07,40,18.60
2010,08,05,07,41,18.60
2010,08,05,07,42,18.60
2010,08,05,07,43,18.60
2010,08,05,07,44,18.60
2010,08,05,07,45,18.60
2010,08,05,07,46,18.60
2010,08,05,07,47,18.60
2010,08,05,07,48,18.60
2010,08,05,07,49,18.60
2010,08,05,07,50,18.60
2010,08,05,07,51,18.60
2010,08,05,07,52,18.60
2010,08,05,07,53,18.60
2010,08,05,07,54,18.60
2010,08,05,07,55,18.60
2010,08,05,07,56,18.60
2010,08,05,07,57,18.60
2010,08,05,07,58,18.60
2010,08,05,07,59,18.50
2010,08,05,08,00,18.60
2010,08,05,08,01,18.50
2010,08,05,08,02,18.60
2010,08,05,08,03,18.60
2010,08,05,08,04,18.60
2010,08,05,08,05,18.60
2010,08,05,08,06,18.70
2010,08,05,08,07,18.70
2010,08,05,08,08,18.70
2010,08,05,08,09,18.70
2010,08,05,08,10,18.70
2010,08,05,08,11,18.70
2010,08,05,08,12,18.80
2010,08,05,08,13,18.80
2010,08,05,08,14,18.90
2010,08,05,08,15,18.90
2010,08,05,08,16,19.00
2010,08,05,08,17,19.10
2010,08,05,08,18,19.10
2010,08,05,08,19,19.20
2010,08,05,08,20,19.20
2010,08,05,08,21,19.30
2010,08,05,08,22,19.30
2010,08,05,08,23,19.40
2010,08,05,08,24,19.40
2010,08,05,08,25,19.50
2010,08,05,08,26,19.50
2010,08,05,08,27,19.50
2010,08,05,08,28,19.60
2010,08,05,08,29,19.60
2010,08,05,08,30,19.60
2010,08,05,08,31,19.60
2010,08,05,08,32,19.70
2010,08,05,08,33,19.70
2010,08,05,08,34,19.70
2010,08,05,08,35,19.80
2010,08,05,08,36,19.90
2010,08,05,08,37,20.00
2010,08,05,08,38,20.00
2010,08,05,08,39,20.10
2010,08,05,08,40,20.20
2010,08,05,08,41,20.20
2010,08,05,08,42,20.30
2010,08,05,08,43,20.40
2010,08,05,08,44,20.50
2010,08,05,08,45,20.50
2010,08,05,08,46,20.60
2010,08,05,08,47,20.70
2010,08,05,08,48,20.70
2010,08,05,08,49,20.80
2010,08,05,08,50,20.80
2010,08,05,08,51,20.90
2010,08,05,08,52,21.00
2010,08,05,08,53,21.00
2010,08,05,08,54,21.10
2010,08,05,08,55,21.10
2010,08,05,08,56,21.20
2010,08,05,08,57,21.20
2010,08,05,08,58,21.20
2010,08,05,08,59,21.10
2010,08,05,09,00,21.10
2010,08,05,09,01,21.10
2010,08,05,09,02,21.00
2010,08,05,09,03,21.00
2010,08,05,09,04,20.90
2010,08,05,09,05,20.90
2010,08,05,09,06,20.80
2010,08,05,09,07,20.80
2010,08,05,09,08,20.80
2010,08,05,09,09,20.80
2010,08,05,09,10,20.80
2010,08,05,09,11,20.80
2010,08,05,09,12,20.80
2010,08,05,09,13,20.80
2010,08,05,09,14,20.70
2010,08,05,09,15,20.70
2010,08,05,09,16,20.60
2010,08,05,09,17,20.60
2010,08,05,09,18,20.50
2010,08,05,09,19,20.50
2010,08,05,09,20,20.50
2010,08,05,09,21,20.50
2010,08,05,09,22,20.50
2010,08,05,09,23,20.50
2010,08,05,09,24,20.50
2010,08,05,09,25,20.50
2010,08,05,09,26,20.50
2010,08,05,09,27,20.60
2010,08,05,09,28,20.60
2010,08,05,09,29,20.60
2010,08,05,09,30,20.60
2010,08,05,09,31,20.60
2010,08,05,09,32,20.60
2010,08,05,09,33,20.60
2010,08,05,09,34,20.70
2010,08,05,09,35,20.70
2010,08,05,09,36,20.70
2010,08,05,09,37,20.70
2010,08,05,09,38,20.80
2010,08,05,09,39,20.80
2010,08,05,09,40,20.90
2010,08,05,09,41,20.90
2010,08,05,09,42,20.90
2010,08,05,09,43,20.90
2010,08,05,09,44,21.00
2010,08,05,09,45,21.00
2010,08,05,09,46,21.00
2010,08,05,09,47,21.00
2010,08,05,09,48,21.00
2010,08,05,09,49,21.00
2010,08,05,09,50,21.00
2010,08,05,09,51,21.00
2010,08,05,09,52,21.00
2010,08,05,09,53,21.10
2010,08,05,09,54,21.10
2010,08,05,09,55,21.00
2010,08,05,09,56,21.00
2010,08,05,09,57,21.10
2010,08,05,09,58,21.10
2010,08,05,09,59,21.10
2010,08,05,10,00,21.10
2010,08,05,10,01,21.10
2010,08,05,10,02,21.10
2010,08,05,10,03,21.10
2010,08,05,10,04,21.10
2010,08,05,10,05,21.10
2010,08,05,10,06,21.10
2010,08,05,10,07,21.10
2010,08,05,10,08,21.10
2010,08,05,10,09,21.00
2010,08,05,10,10,21.10
2010,08,05,10,11,21.10
2010,08,05,10,12,21.10
2010,08,05,10,13,21.10
2010,08,05,10,14,21.10
2010,08,05,10,15,21.20
2010,08,05,10,16,21.20
2010,08,05,10,17,21.20
2010,08,05,10,18,21.20
2010,08,05,10,19,21.20
2010,08,05,10,20,21.20
2010,08,05,10,21,21.30
2010,08,05,10,22,21.30
2010,08,05,10,23,21.30
2010,08,05,10,24,21.40
2010,08,05,10,25,21.40
2010,08,05,10,26,21.40
2010,08,05,10,27,21.40
2010,08,05,10,28,21.50
2010,08,05,10,29,21.50
2010,08,05,10,30,21.50
2010,08,05,10,31,21.50
2010,08,05,10,32,21.50
2010,08,05,10,33,21.50
2010,08,05,10,34,21.60
2010,08,05,10,35,21.60
2010,08,05,10,36,21.60
2010,08,05,10,37,21.60
2010,08,05,10,38,21.50
2010,08,05,10,39,21.50
2010,08,05,10,40,21.50
2010,08,05,10,41,21.50
2010,08,05,10,42,21.60
2010,08,05,10,43,21.60
2010,08,05,10,44,21.60
2010,08,05,10,45,21.60
2010,08,05,10,46,21.70
2010,08,05,10,47,21.70
2010,08,05,10,48,21.70
2010,08,05,10,49,21.80
2010,08,05,10,50,21.80
2010,08,05,10,51,21.80
2010,08,05,10,52,21.70
2010,08,05,10,53,21.70
2010,08,05,10,54,21.70
2010,08,05,10,55,21.60
2010,08,05,10,56,21.60
2010,08,05,10,57,21.60
2010,08,05,10,58,21.60
2010,08,05,10,59,21.60
2010,08,05,11,00,21.50
2010,08,05,11,01,21.50
2010,08,05,11,02,21.50
2010,08,05,11,03,21.40
2010,08,05,11,04,21.40
2010,08,05,11,05,21.40
2010,08,05,11,06,21.40
2010,08,05,11,07,21.40
2010,08,05,11,08,21.30
2010,08,05,11,09,21.30
2010,08,05,11,10,21.30
2010,08,05,11,11,21.20
2010,08,05,11,12,21.20
2010,08,05,11,13,21.20
2010,08,05,11,14,21.20
2010,08,05,11,15,21.20
2010,08,05,11,16,21.20
2010,08,05,11,17,21.10
2010,08,05,11,18,21.10
2010,08,05,11,19,21.10
2010,08,05,11,20,21.10
2010,08,05,11,21,21.20
2010,08,05,11,22,21.20
2010,08,05,11,23,21.20
2010,08,05,11,24,21.20
2010,08,05,11,25,21.20
2010,08,05,11,26,21.30
2010,08,05,11,27,21.30
2010,08,05,11,28,21.30
2010,08,05,11,29,21.30
2010,08,05,11,30,21.30
2010,08,05,11,31,21.30
2010,08,05,11,32,21.30
2010,08,05,11,33,21.30
2010,08,05,11,34,21.30
2010,08,05,11,35,21.30
2010,08,05,11,36,21.30
2010,08,05,11,37,21.30
2010,08,05,11,38,21.30
2010,08,05,11,39,21.30
2010,08,05,11,40,21.30
2010,08,05,11,41,21.40
2010,08,05,11,42,21.40
2010,08,05,11,43,21.40
2010,08,05,11,44,21.40
2010,08,05,11,45,21.40
2010,08,05,11,46,21.40
2010,08,05,11,47,21.40
2010,08,05,11,48,21.50
2010,08,05,11,49,21.50
2010,08,05,11,50,21.60
2010,08,05,11,51,21.60
2010,08,05,11,52,21.70
2010,08,05,11,53,21.70
2010,08,05,11,54,21.80
2010,08,05,11,55,21.80
2010,08,05,11,56,21.80
2010,08,05,11,57,21.80
2010,08,05,11,58,21.90
2010,08,05,11,59,21.90
2010,08,05,12,00,21.90
2010,08,05,12,01,21.90
2010,08,05,12,02,21.90
2010,08,05,12,03,21.80
2010,08,05,12,04,21.80
2010,08,05,12,05,21.80
2010,08,05,12,06,21.70
2010,08,05,12,07,21.70
2010,08,05,12,08,21.60
2010,08,05,12,09,21.60
2010,08,05,12,10,21.60
2010,08,05,12,11,21.50
2010,08,05,12,12,21.50
2010,08,05,12,13,21.50
2010,08,05,12,14,21.50
2010,08,05,12,15,21.50
2010,08,05,12,16,21.50
2010,08,05,12,17,21.50
2010,08,05,12,18,21.50
2010,08,05,12,19,21.50
2010,08,05,12,20,21.50
2010,08,05,12,21,21.50
2010,08,05,12,22,21.50
2010,08,05,12,23,21.50
2010,08,05,12,24,21.50
2010,08,05,12,25,21.40
2010,08,05,12,26,21.40
2010,08,05,12,27,21.40
2010,08,05,12,28,21.40
2010,08,05,12,29,21.50
2010,08,05,12,30,21.50
2010,08,05,12,31,21.50
2010,08,05,12,32,21.50
2010,08,05,12,33,21.50
2010,08,05,12,34,21.60
2010,08,05,12,35,21.60
2010,08,05,12,36,21.60
2010,08,05,12,37,21.60
2010,08,05,12,38,21.70
2010,08,05,12,39,21.70
2010,08,05,12,40,21.70
2010,08,05,12,41,21.80
2010,08,05,12,42,21.80
2010,08,05,12,43,21.80
2010,08,05,12,44,21.80
2010,08,05,12,45,21.80
2010,08,05,12,46,21.80
2010,08,05,12,47,21.80
2010,08,05,12,48,21.90
2010,08,05,12,49,21.90
2010,08,05,12,50,22.00
2010,08,05,12,51,22.00
2010,08,05,12,52,22.00
2010,08,05,12,53,22.00
2010,08,05,12,54,22.00
2010,08,05,12,55,22.10
2010,08,05,12,56,22.10
2010,08,05,12,57,22.10
2010,08,05,12,58,22.20
2010,08,05,12,59,22.20
2010,08,05,13,00,22.20
2010,08,05,13,01,22.30
2010,08,05,13,02,22.30
2010,08,05,13,03,22.40
2010,08,05,13,04,22.50
2010,08,05,13,05,22.60
2010,08,05,13,06,22.60
2010,08,05,13,07,22.70
2010,08,05,13,08,22.70
2010,08,05,13,09,22.80
2010,08,05,13,10,22.80
2010,08,05,13,11,22.80
2010,08,05,13,12,22.80
2010,08,05,13,13,22.90
2010,08,05,13,14,22.90
2010,08,05,13,15,22.90
2010,08,05,13,16,23.00
2010,08,05,13,17,23.10
2010,08,05,13,18,23.20
2010,08,05,13,19,23.30
2010,08,05,13,20,23.40
2010,08,05,13,21,23.40
2010,08,05,13,22,23.50
2010,08,05,13,23,23.60
2010,08,05,13,24,23.70
2010,08,05,13,25,23.70
2010,08,05,13,26,23.70
2010,08,05,13,27,23.70
2010,08,05,13,28,23.80
2010,08,05,13,29,23.80
2010,08,05,13,30,23.90
2010,08,05,13,31,24.00
2010,08,05,13,32,24.00
2010,08,05,13,33,24.00
2010,08,05,13,34,24.10
2010,08,05,13,35,24.10
2010,08,05,13,36,24.20
2010,08,05,13,37,24.20
2010,08,05,13,38,24.30
2010,08,05,13,39,24.40
2010,08,05,13,40,24.40
2010,08,05,13,41,24.40
2010,08,05,13,42,24.40
2010,08,05,13,43,24.40
2010,08,05,13,44,24.50
2010,08,05,13,45,24.60
2010,08,05,13,46,24.70
2010,08,05,13,47,24.80
2010,08,05,13,48,24.80
2010,08,05,13,49,24.90
2010,08,05,13,50,25.00
2010,08,05,13,51,25.00
2010,08,05,13,52,25.00
2010,08,05,13,53,25.10
2010,08,05,13,54,25.10
2010,08,05,13,55,25.20
2010,08,05,13,56,25.30
2010,08,05,13,57,25.30
2010,08,05,13,58,25.40
2010,08,05,13,59,25.50
2010,08,05,14,00,25.50
2010,08,05,14,01,25.60
2010,08,05,14,02,25.70
2010,08,05,14,03,25.80
2010,08,05,14,04,25.90
2010,08,05,14,05,25.90
2010,08,05,14,06,25.90
2010,08,05,14,07,25.90
2010,08,05,14,08,25.90
2010,08,05,14,09,25.90
2010,08,05,14,10,25.90
2010,08,05,14,11,25.90
2010,08,05,14,12,25.90
2010,08,05,14,13,25.80
2010,08,05,14,14,25.70
2010,08,05,14,15,25.70
2010,08,05,14,16,25.60
2010,08,05,14,17,25.50
2010,08,05,14,18,25.50
2010,08,05,14,19,25.50
2010,08,05,14,20,25.50
2010,08,05,14,21,25.40
2010,08,05,14,22,25.40
2010,08,05,14,23,25.40
2010,08,05,14,24,25.40
2010,08,05,14,25,25.40
2010,08,05,14,26,25.40
2010,08,05,14,27,25.40
2010,08,05,14,28,25.30
2010,08,05,14,29,25.30
2010,08,05,14,30,25.20
2010,08,05,14,31,25.20
2010,08,05,14,32,25.20
2010,08,05,14,33,25.20
2010,08,05,14,34,25.20
2010,08,05,14,35,25.20
2010,08,05,14,36,25.20
2010,08,05,14,37,25.20
2010,08,05,14,38,25.20
2010,08,05,14,39,25.20
2010,08,05,14,40,25.30
2010,08,05,14,41,25.30
2010,08,05,14,42,25.30
2010,08,05,14,43,25.40
2010,08,05,14,44,25.40
2010,08,05,14,45,25.40
2010,08,05,14,46,25.40
2010,08,05,14,47,25.40
2010,08,05,14,48,25.40
2010,08,05,14,49,25.20
2010,08,05,14,50,25.10
2010,08,05,14,51,25.00
2010,08,05,14,52,24.90
2010,08,05,14,53,24.70
2010,08,05,14,54,24.60
2010,08,05,14,55,24.60
2010,08,05,14,56,24.60
2010,08,05,14,57,24.70
2010,08,05,14,58,24.70
2010,08,05,14,59,24.70
2010,08,05,15,00,24.60
2010,08,05,15,01,24.50
2010,08,05,15,02,24.50
2010,08,05,15,03,24.40
2010,08,05,15,04,24.30
2010,08,05,15,05,24.30
2010,08,05,15,06,24.20
2010,08,05,15,07,24.20
2010,08,05,15,08,24.30
2010,08,05,15,09,24.30
2010,08,05,15,10,24.30
2010,08,05,15,11,24.30
2010,08,05,15,12,24.40
2010,08,05,15,13,24.40
2010,08,05,15,14,24.50
2010,08,05,15,15,24.50
2010,08,05,15,16,24.50
2010,08,05,15,17,24.40
2010,08,05,15,18,24.30
2010,08,05,15,19,24.30
2010,08,05,15,20,24.30
2010,08,05,15,21,24.30
2010,08,05,15,22,24.40
2010,08,05,15,23,24.40
2010,08,05,15,24,24.40
2010,08,05,15,25,24.40
2010,08,05,15,26,24.40
2010,08,05,15,27,24.50
2010,08,05,15,28,24.50
2010,08,05,15,29,24.50
2010,08,05,15,30,24.60
2010,08,05,15,31,24.50
2010,08,05,15,32,24.50
2010,08,05,15,33,24.40
2010,08,05,15,34,24.40
2010,08,05,15,35,24.40
2010,08,05,15,36,24.40
2010,08,05,15,37,24.30
2010,08,05,15,38,24.30
2010,08,05,15,39,24.30
2010,08,05,15,40,24.30
2010,08,05,15,41,24.30
2010,08,05,15,42,24.20
2010,08,05,15,43,24.10
2010,08,05,15,44,24.20
2010,08,05,15,45,24.20
2010,08,05,15,46,24.20
2010,08,05,15,47,24.30
2010,08,05,15,48,24.40
2010,08,05,15,49,24.40
2010,08,05,15,50,24.40
2010,08,05,15,51,24.40
2010,08,05,15,52,24.40
2010,08,05,15,53,24.40
2010,08,05,15,54,24.40
2010,08,05,15,55,24.40
2010,08,05,15,56,24.40
2010,08,05,15,57,24.40
2010,08,05,15,58,24.50
2010,08,05,15,59,24.50
2010,08,05,16,00,24.60
2010,08,05,16,01,24.60
2010,08,05,16,02,24.60
2010,08,05,16,03,24.70
2010,08,05,16,04,24.70
2010,08,05,16,05,24.70
2010,08,05,16,06,24.80
2010,08,05,16,07,24.80
2010,08,05,16,08,24.80
2010,08,05,16,09,24.90
2010,08,05,16,10,24.90
2010,08,05,16,11,24.90
2010,08,05,16,12,24.90
2010,08,05,16,13,25.00
2010,08,05,16,14,25.10
2010,08,05,16,15,25.10
2010,08,05,16,16,25.20
2010,08,05,16,17,25.20
2010,08,05,16,18,25.20
2010,08,05,16,19,25.20
2010,08,05,16,20,25.20
2010,08,05,16,21,25.20
2010,08,05,16,22,25.30
2010,08,05,16,23,25.30
2010,08,05,16,24,25.30
2010,08,05,16,25,25.30
2010,08,05,16,26,25.30
2010,08,05,16,27,25.30
2010,08,05,16,28,25.30
2010,08,05,16,29,25.30
2010,08,05,16,30,25.40
2010,08,05,16,31,25.40
2010,08,05,16,32,25.50
2010,08,05,16,33,25.60
2010,08,05,16,34,25.60
2010,08,05,16,35,25.60
2010,08,05,16,36,25.60
2010,08,05,16,37,25.60
2010,08,05,16,38,25.60
2010,08,05,16,39,25.60
2010,08,05,16,40,25.60
2010,08,05,16,41,25.60
2010,08,05,16,42,25.60
2010,08,05,16,43,25.60
2010,08,05,16,44,25.60
2010,08,05,16,45,25.60
2010,08,05,16,46,25.60
2010,08,05,16,47,25.60
2010,08,05,16,48,25.60
2010,08,05,16,49,25.60
2010,08,05,16,50,25.50
2010,08,05,16,51,25.60
2010,08,05,16,52,25.60
2010,08,05,16,53,25.60
2010,08,05,16,54,25.60
2010,08,05,16,55,25.60
2010,08,05,16,56,25.60
2010,08,05,16,57,25.60
2010,08,05,16,58,25.60
2010,08,05,16,59,25.60
2010,08,05,17,00,25.50
2010,08,05,17,01,25.50
2010,08,05,17,02,25.40
2010,08,05,17,03,25.30
2010,08,05,17,04,25.30
2010,08,05,17,05,25.20
2010,08,05,17,06,25.20
2010,08,05,17,07,25.10
2010,08,05,17,08,25.10
2010,08,05,17,09,25.10
2010,08,05,17,10,25.00
2010,08,05,17,11,25.00
2010,08,05,17,12,24.90
2010,08,05,17,13,24.90
2010,08,05,17,14,24.90
2010,08,05,17,15,24.90
2010,08,05,17,16,24.90
2010,08,05,17,17,24.90
2010,08,05,17,18,24.90
2010,08,05,17,19,24.90